Wind_Speed
4 3 1 1 3 7 9 7 7 7 6 5 4 3 3 4 4 4 4 4 4 4 5 5 6 6 7 7 6 8 8 8 8 8 9 9 10 10 10 11 12 12 11
6 5 4 1 2 7 9 8 7 6 6 6 5 6 6 5 4 3 3 2 1 3 4 4 5 5 7 4 6 6 6 7 8 8 9 10 10 11 11 12 13 13 13
9 8 6 3 2 7 9 8 7 6 6 6 6 5 6 6 5 4 3 2 0 2 2 2 2 3 4 2 3 4 5 7 8 9 10 10 11 11 11 12 13 14 14
10 8 6 3 4 8 11 9 7 6 6 6 6 6 5 5 5 4 3 2 1 2 2 2 2 2 3 2 3 3 4 6 8 9 9 11 10 12 13 13 13 13 13
11 9 8 5 3 7 7 7 7 6 6 6 6 7 6 6 5 5 4 3 3 3 3 3 4 3 3 4 5 5 6 8 8 9 9 10 9 11 11 12 12 12 12
11 10 9 6 7 7 8 7 6 6 5 5 6 6 6 6 6 5 5 5 4 4 4 4 4 5 5 5 5 6 7 8 8 9 9 9 11 11 12 12 13 13 13
12 10 11 11 10 9 8 8 7 6 5 5 6 7 6 6 6 6 6 5 5 4 4 4 3 4 4 4 5 6 7 8 8 8 9 8 9 10 10 12 12 12 12
16 15 16 13 11 10 12 10 9 7 6 5 6 6 7 6 6 6 7 6 5 5 4 4 4 4 4 4 4 4 5 6 7 8 9 8 10 11 11 13 13 13 14
16 15 15 15 16 17 14 12 11 10 7 6 6 6 7 7 6 6 6 6 5 5 5 5 5 5 5 5 5 5 6 7 9 10 11 11 11 12 13 14 14 14 15
20 18 18 18 18 18 17 15 13 12 10 7 7 7 7 8 7 6 6 6 6 6 6 6 6 6 6 6 6 7 9 10 12 12 11 13 14 15 15 15 16 16 16
22 22 21 18 19 19 19 17 16 14 12 10 8 9 9 9 8 6 6 6 7 7 7 6 6 7 8 8 9 10 11 12 14 13 14 16 16 17 18 18 18 18 18
23 23 24 22 21 21 20 19 18 17 15 13 11 11 11 10 8 8 8 8 8 8 8 9 9 10 10 10 11 12 14 14 15 12 15 17 18 19 20 20 21 22 22
23 24 26 26 24 22 21 21 21 20 18 16 14 14 13 12 10 9 9 10 11 11 10 11 12 12 13 15 14 13 15 15 18 15 17 20 22 23 23 24 24 24 25
28 27 26 25 25 24 23 23 23 22 20 18 16 16 14 13 12 10 10 11 12 14 13 14 14 14 15 16 15 15 15 15 19 19 19 22 24 26 25 25 25 24 24
20 28 27 24 25 23 21 23 22 23 22 20 19 18 16 15 13 12 12 13 15 16 17 17 18 17 17 18 16 15 15 17 20 24 21 23 24 25 24 23 22 22 22
29 29 28 25 25 24 24 22 22 21 21 21 18 18 17 15 14 13 13 12 16 20 19 19 18 19 19 19 16 15 16 19 20 25 22 22 23 22 22 22 22 23 24
35 31 33 30 28 29 23 23 22 24 23 21 18 16 15 14 15 15 16 18 18 25 28 21 19 19 18 16 15 16 18 20 22 23 26 23 22 22 22 23 24 24 25
38 37 35 36 33 32 31 26 25 24 25 23 20 17 17 17 19 18 19 19 20 19 23 25 20 16 15 15 16 17 18 20 22 23 24 24 23 22 23 25 25 26 27
43 41 39 41 38 33 33 30 28 27 29 26 25 25 21 21 20 21 21 21 21 17 14 21 23 18 16 15 16 17 18 20 21 23 23 24 25 25 25 25 27 28 29
46 46 45 45 42 37 35 35 32 30 33 31 27 28 25 24 23 23 23 24 23 20 18 17 19 25 19 16 17 18 19 21 23 24 25 26 25 27 28 29 30 31 32
51 47 50 50 48 42 41 39 37 33 37 34 31 28 28 22 23 23 25 25 23 22 20 22 21 24 19 17 17 19 20 23 24 26 26 28 28 28 29 31 31 33 33
53 57 52 53 53 50 45 42 39 36 37 32 30 27 28 27 23 23 26 26 24 23 26 31 27 18 18 18 19 21 24 25 25 28 28 29 30 31 32 33 34 35 36
43 55 60 59 53 55 49 46 45 42 41 35 31 27 27 27 25 26 26 25 27 24 23 23 25 18 19 20 22 24 27 28 30 31 31 32 33 34 34 35 34 35 36
40 40 51 61 58 55 55 52 49 46 42 36 33 30 28 27 27 27 27 28 28 28 24 27 24 17 22 23 23 25 28 31 33 34 34 35 36 36 37 37 36 37 39
36 38 41 46 54 55 59 58 55 50 46 39 35 32 30 28 28 29 29 29 29 27 28 24 18 18 20 21 24 27 30 33 36 38 38 35 36 37 38 38 38 41 44
43 43 42 41 44 47 54 62 59 55 48 43 38 35 32 31 31 31 32 30 28 31 29 27 21 20 22 24 27 30 33 36 39 41 43 40 40 36 38 39 41 44 47
Wind_Direction
212 218 235 52 26 14 12 14 15 8 5 354 347 332 339 320 307 293 282 278 258 239 233 229 225 235 246 237 239 236 243 245 246 256 266 273 282 290 297 299 302 304 303
225 233 234 240 344 358 7 4 10 13 7 9 10 356 353 348 352 343 331 311 254 227 220 218 224 228 247 245 227 224 233 246 252 262 273 284 288 294 297 299 300 300 300
225 228 231 217 341 351 353 2 358 2 8 7 13 28 355 2 3 0 357 3 246 241 252 263 265 277 268 239 207 217 237 254 263 272 279 281 287 290 293 294 293 296 295
214 218 219 228 337 342 340 338 341 343 352 360 0 15 14 14 7 0 357 345 295 290 289 295 286 245 268 284 274 261 267 276 282 285 289 290 294 294 293 293 293 293 293
212 209 210 218 284 317 316 316 315 320 332 344 352 358 359 8 13 4 344 324 306 290 277 274 283 284 284 295 298 304 301 294 293 293 294 297 299 299 300 298 297 296 294
221 220 212 242 279 281 294 285 283 294 314 334 343 350 353 357 357 355 347 335 322 313 307 303 303 307 304 309 317 315 307 303 303 306 307 314 310 309 305 301 300 297 298
217 226 251 265 267 258 268 279 277 290 306 325 339 345 346 352 358 356 348 341 334 328 320 314 317 324 333 328 317 311 309 309 312 312 312 320 312 313 311 305 302 303 302
234 247 256 259 252 249 271 262 271 275 288 308 326 336 343 346 354 357 352 351 348 339 339 338 342 345 340 337 333 327 321 319 314 315 308 319 313 311 309 306 307 304 298
239 233 242 246 252 267 261 255 258 261 268 288 308 322 329 335 342 350 356 351 352 354 1 1 359 352 343 335 332 325 317 314 313 312 320 312 308 305 303 301 302 299 298
244 232 241 249 252 257 252 251 255 257 265 273 288 301 312 320 328 336 340 340 344 349 354 351 346 338 329 328 322 313 314 312 311 309 316 306 307 305 303 303 299 300 296
239 248 239 245 250 250 250 252 254 255 258 263 274 289 296 303 312 314 314 320 328 332 334 331 329 322 320 317 309 306 306 305 302 305 308 304 304 303 302 301 301 296 294
241 245 255 245 248 250 248 250 250 253 253 259 269 280 286 293 301 299 301 303 310 312 315 316 317 319 316 316 303 304 302 301 296 304 302 302 301 301 300 302 297 295 292
247 247 251 251 247 252 252 250 251 252 251 255 263 272 281 290 294 298 303 305 302 302 303 302 310 309 310 314 313 305 301 301 299 304 304 304 303 302 303 301 299 296 293
245 246 247 254 251 249 252 252 253 252 252 255 259 266 272 277 282 291 298 300 300 300 296 297 299 298 302 306 305 301 299 299 300 303 304 304 304 304 304 302 299 296 294
243 248 244 246 255 246 247 249 250 254 254 257 262 265 267 270 274 280 289 297 304 302 301 297 298 298 298 301 298 296 297 300 302 303 306 306 305 303 303 300 299 297 296
225 240 251 243 245 250 247 247 248 250 254 257 260 265 266 266 268 275 281 299 319 310 298 294 292 294 295 294 293 292 296 300 302 305 310 309 306 304 303 301 299 298 298
230 232 245 247 241 246 247 251 253 255 255 256 255 260 265 267 268 269 279 284 287 305 311 295 291 289 287 285 287 294 301 306 308 308 309 310 306 304 303 301 300 300 299
227 232 239 247 245 247 249 247 253 256 257 254 250 255 264 270 275 281 281 284 279 277 288 297 290 282 277 279 287 296 304 307 310 310 309 310 306 304 303 302 301 300 300
234 229 236 242 247 248 250 248 245 251 255 256 260 257 264 269 278 280 285 281 283 269 272 281 297 281 273 279 288 299 307 311 312 312 310 308 307 305 302 300 301 300 299
233 235 236 242 247 248 246 249 245 246 254 256 258 263 263 269 273 279 276 281 286 276 281 281 285 285 275 283 294 301 308 312 314 314 310 307 305 305 304 303 301 301 299
232 235 239 237 241 241 244 246 252 249 253 257 261 265 270 267 266 278 279 281 277 272 284 294 274 268 272 281 292 301 308 314 318 314 312 308 306 303 303 302 301 300 299
234 231 232 239 242 240 238 245 249 247 251 255 261 269 270 269 273 273 272 277 266 274 280 286 266 265 273 287 299 305 311 312 317 316 313 308 306 306 305 303 303 302 300
236 233 233 239 239 244 240 240 243 245 248 252 260 270 273 269 265 272 272 267 264 270 277 286 268 244 281 293 302 307 311 314 317 318 313 309 306 305 303 303 303 302 299
245 236 236 236 237 239 245 241 243 248 253 256 259 270 269 261 261 269 269 263 264 268 270 280 278 266 265 276 287 300 309 312 314 313 312 308 306 305 304 303 304 302 299
236 247 238 237 238 236 242 244 242 244 248 252 257 266 268 257 258 263 263 259 263 259 264 270 263 263 276 289 298 305 310 311 312 312 309 305 305 307 306 306 305 301 301
234 229 234 241 239 234 236 242 242 244 245 250 256 263 269 258 257 259 258 257 260 263 273 278 269 269 282 293 301 307 309 311 312 311 310 309 307 306 304 305 305 303 302
Height
3150 3152 3153 3153 3154 3153 3152 3151 3151 3151 3150 3151 3150 3149 3149 3149 3149 3148 3148 3148 3149 3150 3151 3152 3153 3154 3154 3155 3156 3157 3158 3159 3159 3160 3161 3161 3161 3161 3160 3160 3160 3160 3160
3149 3151 3152 3153 3153 3153 3153 3152 3152 3151 3151 3150 3150 3150 3150 3149 3149 3149 3148 3148 3149 3150 3151 3151 3152 3153 3153 3154 3155 3156 3157 3158 3158 3159 3159 3159 3159 3160 3160 3159 3158 3158 3158
3148 3150 3151 3151 3152 3152 3152 3152 3152 3152 3151 3151 3150 3150 3149 3149 3149 3148 3149 3150 3150 3151 3151 3152 3153 3153 3154 3155 3155 3156 3157 3157 3157 3157 3158 3158 3158 3158 3157 3157 3157 3156 3156
3147 3148 3150 3151 3151 3152 3152 3152 3151 3150 3150 3150 3150 3150 3149 3149 3149 3149 3149 3150 3151 3152 3152 3152 3153 3154 3154 3154 3155 3156 3156 3156 3156 3156 3157 3156 3157 3156 3156 3155 3155 3154 3154
3145 3147 3148 3149 3150 3150 3151 3151 3151 3150 3149 3149 3149 3149 3149 3149 3149 3150 3150 3151 3151 3152 3152 3152 3153 3153 3153 3154 3155 3154 3154 3155 3155 3155 3155 3155 3154 3154 3154 3154 3153 3152 3152
3143 3146 3146 3147 3149 3149 3149 3150 3150 3150 3149 3149 3149 3149 3149 3149 3150 3150 3151 3151 3152 3152 3152 3152 3152 3153 3153 3154 3154 3154 3154 3154 3154 3153 3153 3152 3152 3152 3152 3151 3151 3151 3150
3140 3144 3145 3146 3146 3148 3149 3149 3149 3150 3149 3149 3150 3150 3150 3150 3150 3151 3151 3151 3152 3152 3152 3152 3152 3152 3153 3153 3153 3153 3153 3153 3152 3151 3151 3151 3151 3150 3150 3149 3149 3149 3148
3140 3142 3143 3144 3145 3147 3148 3149 3149 3149 3149 3149 3150 3150 3150 3150 3150 3150 3151 3150 3151 3151 3152 3152 3152 3152 3152 3152 3152 3152 3152 3151 3151 3150 3150 3150 3149 3149 3148 3148 3148 3147 3146
3136 3141 3141 3142 3144 3145 3146 3148 3148 3148 3148 3149 3149 3150 3150 3150 3150 3150 3150 3150 3150 3151 3151 3151 3151 3151 3151 3152 3151 3151 3151 3150 3149 3149 3149 3148 3148 3147 3147 3146 3145 3145 3144
3132 3137 3139 3140 3141 3143 3144 3145 3146 3147 3147 3147 3148 3148 3149 3149 3149 3150 3150 3150 3150 3150 3150 3150 3151 3151 3151 3151 3150 3149 3149 3148 3147 3147 3147 3146 3146 3145 3144 3144 3143 3142 3142
3131 3131 3136 3138 3138 3140 3142 3143 3144 3145 3145 3145 3146 3147 3147 3148 3148 3149 3149 3150 3150 3150 3150 3150 3150 3150 3150 3150 3149 3148 3147 3146 3145 3146 3145 3144 3143 3142 3142 3141 3141 3139 3138
3129 3131 3129 3135 3135 3137 3139 3139 3141 3142 3143 3144 3144 3145 3146 3147 3147 3147 3148 3149 3149 3150 3150 3150 3149 3148 3148 3148 3147 3146 3145 3144 3143 3144 3142 3141 3140 3139 3138 3138 3137 3136 3134
3127 3128 3128 3130 3132 3133 3136 3137 3138 3139 3140 3141 3142 3143 3143 3145 3146 3147 3147 3147 3148 3148 3148 3147 3148 3147 3146 3144 3144 3143 3142 3141 3140 3141 3140 3138 3136 3135 3134 3133 3132 3131 3129
3123 3125 3126 3124 3128 3130 3132 3133 3135 3136 3137 3138 3140 3140 3142 3143 3143 3144 3145 3145 3146 3146 3147 3146 3145 3145 3144 3143 3142 3140 3139 3139 3137 3137 3137 3135 3132 3131 3130 3129 3127 3126 3124
3118 3119 3122 3122 3121 3126 3128 3129 3131 3131 3134 3135 3137 3138 3139 3140 3141 3142 3143 3143 3144 3144 3144 3143 3142 3142 3140 3140 3139 3138 3136 3136 3135 3132 3133 3131 3128 3126 3125 3124 3123 3121 3120
3116 3114 3116 3120 3120 3120 3123 3124 3127 3128 3130 3132 3134 3135 3136 3138 3138 3139 3140 3141 3142 3142 3140 3140 3139 3138 3137 3136 3135 3135 3134 3133 3132 3128 3129 3127 3124 3123 3121 3120 3118 3117 3115
3111 3111 3111 3115 3116 3119 3119 3121 3122 3124 3126 3128 3130 3132 3133 3135 3136 3136 3137 3137 3137 3139 3139 3136 3135 3134 3134 3133 3132 3132 3130 3129 3127 3126 3121 3122 3120 3118 3116 3115 3113 3111 3109
3105 3106 3107 3107 3112 3113 3117 3119 3119 3121 3121 3124 3126 3128 3129 3131 3132 3133 3134 3134 3134 3133 3135 3135 3132 3131 3130 3129 3129 3128 3126 3125 3123 3121 3118 3116 3115 3114 3111 3109 3108 3106 3104
3096 3100 3100 3101 3105 3109 3109 3114 3116 3117 3116 3119 3121 3124 3125 3126 3128 3128 3129 3129 3130 3130 3129 3130 3131 3129 3127 3126 3125 3124 3122 3121 3119 3116 3114 3112 3109 3107 3106 3104 3102 3100 3097
3088 3091 3094 3095 3098 3102 3105 3105 3112 3112 3110 3115 3116 3116 3120 3122 3122 3123 3123 3123 3125 3124 3124 3124 3124 3126 3123 3122 3120 3120 3118 3116 3114 3112 3109 3106 3105 3102 3099 3097 3095 3092 3090
3079 3082 3085 3088 3091 3096 3097 3100 3103 3108 3105 3108 3111 3113 3114 3117 3117 3119 3118 3118 3119 3119 3119 3119 3119 3121 3118 3117 3116 3114 3113 3111 3109 3106 3103 3101 3099 3097 3094 3091 3088 3085 3082
3068 3073 3075 3078 3081 3087 3091 3094 3096 3098 3099 3103 3106 3107 3108 3111 3113 3113 3113 3113 3115 3114 3114 3113 3114 3114 3114 3113 3111 3109 3107 3107 3104 3101 3098 3096 3093 3090 3087 3084 3081 3077 3074
3058 3063 3067 3071 3074 3076 3084 3086 3087 3091 3092 3098 3100 3102 3103 3105 3108 3108 3108 3109 3110 3110 3109 3108 3107 3107 3110 3109 3107 3105 3102 3099 3097 3095 3092 3090 3086 3083 3080 3077 3073 3069 3065
3048 3054 3058 3062 3068 3068 3072 3076 3081 3083 3088 3093 3095 3097 3098 3099 3101 3102 3103 3104 3104 3105 3104 3103 3102 3103 3103 3103 3102 3099 3096 3093 3090 3089 3086 3082 3079 3075 3071 3068 3064 3060 3056
3040 3043 3047 3051 3055 3062 3062 3065 3071 3077 3081 3087 3089 3091 3092 3094 3095 3096 3097 3097 3099 3100 3099 3099 3097 3098 3098 3097 3096 3093 3090 3087 3083 3079 3078 3076 3071 3066 3062 3058 3054 3050 3044
3031 3034 3035 3040 3044 3050 3053 3053 3060 3068 3075 3080 3083 3085 3087 3088 3089 3090 3090 3092 3093 3094 3094 3093 3092 3092 3092 3091 3089 3086 3083 3079 3074 3070 3066 3064 3060 3060 3053 3049 3044 3039 3033